Location: West Cummington
(42.4920°N, 72.9680°W)
Time: 17:30:16
(UTC-05:00)

Cosmos 1703 Rocket - Visible Passes

Search period start: 12 February 2016 00:00
Search period end: 22 February 2016 00:00
Orbit: 606 x 634 km, 82.5° (Epoch: 11 February)

Date Brightness Start Highest point End Pass type
(mag) Time Alt. Az. Time Alt. Az. Time Alt. Az.
12 Feb 3.5 05:05:32 10° S 05:10:00 89° E 05:14:28 10° N visible
13 Feb 6.5 03:47:43 10° ESE 03:50:17 15° E 03:52:50 10° NE visible
13 Feb 3.7 05:23:25 10° SSW 05:27:44 48° WNW 05:32:02 10° N visible
14 Feb 5.6 04:03:59 10° SSE 04:07:45 27° E 04:11:29 10° NNE visible
14 Feb 4.5 05:41:49 10° SW 05:45:33 26° WNW 05:49:19 10° NNW visible
15 Feb 4.3 04:23:42 33° SSE 04:25:18 51° E 04:29:35 10° NNE visible
15 Feb 5.2 06:01:00 10° WSW 06:03:30 15° WNW 06:06:04 10° NNW visible
16 Feb 3.4 04:42:50 82° WSW 04:42:56 84° W 04:47:23 10° N visible
17 Feb 6.4 03:24:13 15° ENE 03:24:13 15° ENE 03:25:56 10° NE visible
17 Feb 4.1 05:01:27 40° NW 05:01:27 40° NW 05:04:55 10° N visible
18 Feb 5.9 03:42:35 21° NE 03:42:35 21° NE 03:44:29 10° NNE visible
18 Feb 4.9 05:19:48 21° NW 05:19:48 21° NW 05:22:08 10° NNW visible
19 Feb 5.5 04:00:46 23° NNE 04:00:46 23° NNE 04:02:32 10° NNE visible
19 Feb 5.6 05:37:59 12° NW 05:37:59 12° NW 05:38:45 10° NW visible
20 Feb 5.5 04:18:50 21° N 04:18:50 21° N 04:20:17 10° N visible
21 Feb 5.6 04:36:49 16° NNW 04:36:49 16° NNW 04:37:47 10° N visible
